Location: La Sioule Rivi�re
(46.3664°N, 3.3197°E)
Time: 12:31:41
(UTC+00:00)

USA 308 - Pass Details

Date: 29 October 2020
Orbit: 571 x 578 km, 54.0° (Epoch: 23 November)

Event Time Altitude Azimuth Distance (km) Brightness Sun altitude
Rises 18:44:20 0° 301° (WNW) 2,786 7.5 -22.6°
Reaches altitude 10° 18:46:38 10° 297° (WNW) 1,884 6.5 -23.0°
Maximum altitude 18:50:49 55° 219° (SW) 692 3.4 -23.8°
Enters shadow 18:51:17 52° 192° (SSW) 718 3.3 -23.8°
